Waarnemingen

Advertentie
Mijn weer
Malung A, Zweden (2407): temperatuur & dauwpunt: 13.06.2018 12:00:00 - 19.06.2018 12:00:00 (CEST)Malung A, Zweden (2407): windsnelheid & windstoten: 13.06.2018 12:00:00 - 19.06.2018 12:00:00 (CEST)Malung A, Zweden (2407): windrichting: 13.06.2018 12:00:00 - 19.06.2018 12:00:00 (CEST)Malung A, Zweden (2407): luchtdruk: 13.06.2018 12:00:00 - 19.06.2018 12:00:00 (CEST)Malung A, Zweden (2407): zicht: 13.06.2018 12:00:00 - 19.06.2018 12:00:00 (CEST)Malung A, Zweden (2407): neerslag: 13.06.2018 12:00:00 - 19.06.2018 12:00:00 (CEST)
Datum & Tijd tt [°C] td [°C] ff [km/u] ff [kn] fx [km/u] fx [kn] dd ppp [hPa] vv [km] rr [mm]
19.06.2018 12:00:00 15,5 0,5 21 11 43 23 W 1000,9 50 0,0
19.06.2018 11:00:00 15,8 2,6 14 7 44 24 W 1000,4 42 0,0
19.06.2018 10:00:00 14,6 4,0 14 7 45 25 WZW 999,8 44 0,0
19.06.2018 09:00:00 13,5 4,6 18 10 45 25 WZW 999,4 46 0,0
19.06.2018 08:00:00 12,9 6,0 13 7 41 22 WZW 999,6 50 0,0
19.06.2018 07:00:00 12,1 6,6 14 8 41 22 ZW 999,9 50 0,0
19.06.2018 06:00:00 11,4 7,5 16 9 35 19 ZZW 999,9 43 0,0
19.06.2018 05:00:00 11,1 7,6 16 8 35 19 ZZW 1000,0 36 0,0
19.06.2018 04:00:00 11,0 7,3 15 8 35 19 ZZW 1000,7 31 0,0
19.06.2018 03:00:00 10,9 6,9 9 5 34 19 Z 1001,3 46 0,0
19.06.2018 02:00:00 11,6 6,9 16 8 34 19 ZZW 1002,1 50 0,0
19.06.2018 01:00:00 12,3 8,7 14 8 34 19 ZZW 1002,8 50 0,0
19.06.2018 00:00:00 12,7 9,9 16 8 32 18 ZZW 1003,3 50 0,0
18.06.2018 23:00:00 12,6 10,5 14 8 25 14 Z 1004,6 9 0,4
18.06.2018 22:00:00 12,0 10,1 11 6 24 13 Z 1005,2 4,0 0,1
18.06.2018 21:00:00 12,0 10,1 13 7 24 13 Z 1005,9 4,9 0,1
18.06.2018 20:00:00 12,2 9,9 13 7 29 16 Z 1006,8 5 0,0
18.06.2018 19:00:00 12,7 9,5 16 8 35 19 Z 1007,3 17 0,0
18.06.2018 18:00:00 13,2 8,9 16 9 48 26 ZZW 1007,5 28 0,0
18.06.2018 17:00:00 14,0 7,7 21 12 48 26 ZZW 1007,8 50 0,0
18.06.2018 16:00:00 15,7 7,5 23 12 46 25 ZZW 1007,5 49 0,0
18.06.2018 15:00:00 16,0 7,2 25 13 46 25 ZZW 1007,3 49 0,0
18.06.2018 14:00:00 15,7 9,4 17 9 41 22 Z 1007,1 50 0,0
18.06.2018 13:00:00 15,3 9,6 20 11 41 22 Z 1007,6 46 0,0
18.06.2018 12:00:00 13,9 8,9 14 7 27 15 ZZW 1008,2 50 0,0
18.06.2018 11:00:00 13,2 8,9 13 7 27 15 ZZW 1008,2 50 0,0
18.06.2018 10:00:00 13,0 9,1 13 7 25 14 ZZW 1008,1 50 0,0
18.06.2018 09:00:00 12,7 8,6 9 5 20 11 ZW 1007,9 50 0,0
18.06.2018 08:00:00 11,5 7,8 6 3 21 11 ZW 1008,0 50 0,0
18.06.2018 07:00:00 10,9 7,6 6 3 21 11 ZZW 1008,4 50 0,0
18.06.2018 06:00:00 10,6 8,2 11 6 21 11 Z 1008,1 46 0,0
18.06.2018 05:00:00 10,5 8,1 9 5 21 11 ZZW 1007,8 43 0,0
18.06.2018 04:00:00 10,3 7,7 7 4 26 14 ZW 1007,6 38 0,0
18.06.2018 03:00:00 11,1 8,3 7 4 26 14 ZW 1007,7 34 0,1
18.06.2018 02:00:00 11,1 8,3 7 4 21 11 ZW 1007,5 10 1,1
18.06.2018 01:00:00 11,0 8,7 6 3 10 5 Z 1007,5 28 0,0
18.06.2018 00:00:00 11,4 9,0 6 3 9 5 ZO 1007,2 48 0,2
17.06.2018 23:00:00 11,3 8,3 0 0 6 3 N 1007,4 8 0,2
17.06.2018 22:00:00 11,6 9,0 0 0 6 3 N 1007,5 13 2,2
17.06.2018 21:00:00 11,7 9,4 3 1 6 3 NNO 1007,7 8 0,5
17.06.2018 20:00:00 12,2 9,2 2 1 7 4 NO 1008,1 37 0,0
17.06.2018 19:00:00 12,1 9,1 0 0 9 5 N 1008,6 26 0,1
17.06.2018 18:00:00 12,0 10,1 6 3 22 12 ONO 1009,2 7 2,4
17.06.2018 17:00:00 11,8 9,7 7 4 22 12 ZZO 1010,4 6 3,8
17.06.2018 16:00:00 12,3 9,9 7 4 16 8 ZO 1010,7 6 1,6
17.06.2018 15:00:00 12,2 9,4 6 4 22 12 OZO 1011,2 17 0,9
17.06.2018 14:00:00 12,0 9,9 10 6 28 15 ZO 1011,7 9 0,4
17.06.2018 13:00:00 12,9 9,9 14 8 28 15 ZZO 1011,8 33 0,2
17.06.2018 12:00:00 12,0 9,7 8 4 18 10 ZO 1012,4 10 2,6
17.06.2018 11:00:00 11,3 9,0 6 3 13 7 ZZO 1012,9 4,2 0,8
17.06.2018 10:00:00 11,1 8,8 7 4 16 9 ZZO 1013,2 13 0,0
17.06.2018 09:00:00 10,8 8,2 6 3 16 9 ZO 1013,5 17 0,4
17.06.2018 08:00:00 10,4 8,0 6 3 14 8 ZZO 1013,7 10 0,8
17.06.2018 07:00:00 10,8 7,7 3 2 6 3 ZO 1013,8 28 0,2
17.06.2018 06:00:00 10,2 7,3 0 0 8 4 N 1014,3 19 0,1
17.06.2018 05:00:00 10,1 6,6 2 1 8 4 ZZW 1014,7 25 0,2
17.06.2018 04:00:00 9,7 7,3 2 1 5 3 Z 1015,5 29 0,1
17.06.2018 03:00:00 9,6 5,6 0 0 5 3 N 1015,5 50 0,0
17.06.2018 02:00:00 9,2 5,7 3 1 4 2 Z 1015,5 50 0,0
17.06.2018 01:00:00 9,2 5,4 0 0 5 3 N 1015,7 50 0,0
17.06.2018 00:00:00 10,3 5,5 0 0 6 4 N 1015,5 50 0,0
16.06.2018 23:00:00 10,7 6,1 4 2 9 5 Z 1015,6 50 0,0
16.06.2018 22:00:00 12,2 6,3 4 2 16 8 ZZW 1015,5 50 0,0
16.06.2018 21:00:00 13,9 7,2 9 5 29 16 ZZO 1015,1 50 0,0
16.06.2018 20:00:00 15,2 6,0 7 4 29 16 ZZW 1014,8 50 0,0
16.06.2018 19:00:00 17,2 5,2 11 6 21 11 ZZW 1014,5 50 0,0
16.06.2018 18:00:00 17,0 4,0 9 5 23 13 Z 1014,5 42 0,0
16.06.2018 17:00:00 16,4 5,1 12 6 29 16 ZZW 1014,9 48 0,0
16.06.2018 16:00:00 16,3 5,3 10 5 31 17 ZW 1015,0 50 0,0
16.06.2018 15:00:00 16,6 5,8 18 10 33 18 ZW 1014,9 40 0,0
16.06.2018 14:00:00 17,7 6,2 16 9 33 18 Z 1014,7 44 0,0
16.06.2018 13:00:00 16,4 6,5 16 9 34 19 Z 1014,8 47 0,0
16.06.2018 12:00:00 16,5 6,3 16 8 34 19 ZZW 1014,6 47 0,0
16.06.2018 11:00:00 14,8 6,6 13 7 28 15 ZZW 1014,9 38 0,0
16.06.2018 10:00:00 13,5 6,1 14 8 28 15 ZZW 1015,0 49 0,0
16.06.2018 09:00:00 13,4 6,3 15 8 27 15 ZZW 1014,6 37 0,0
16.06.2018 08:00:00 12,2 6,5 13 7 27 14 Z 1014,6 39 0,0
16.06.2018 07:00:00 11,7 6,8 12 6 27 14 ZZW 1014,2 45 0,0
16.06.2018 06:00:00 10,1 6,4 12 6 26 14 Z 1014,3 44 0,0
16.06.2018 05:00:00 9,5 6,4 16 9 26 14 Z 1013,9 38 0,0
16.06.2018 04:00:00 9,2 5,8 12 7 21 11 Z 1013,6 40 0,0
16.06.2018 03:00:00 9,7 5,4 13 7 21 12 Z 1013,3 44 0,0
16.06.2018 02:00:00 9,9 4,6 12 6 21 12 Z 1013,2 47 0,0
16.06.2018 01:00:00 10,9 4,0 10 5 21 12 ZZW 1012,9 50 0,0
16.06.2018 00:00:00 11,8 4,5 10 5 22 12 ZZW 1012,6 50 0,0
15.06.2018 23:00:00 12,5 4,5 9 5 26 14 ZZW 1012,2 50 0,0
15.06.2018 22:00:00 13,5 4,9 13 7 34 18 Z 1011,8 50 0,0
15.06.2018 21:00:00 14,9 4,3 14 7 34 18 ZZW 1010,7 50 0,0
15.06.2018 20:00:00 16,2 3,3 11 6 37 20 ZZW 1010,4 50 0,0
15.06.2018 19:00:00 17,1 1,9 14 8 37 20 ZZW 1010,0 50 0,0
15.06.2018 18:00:00 17,1 0,7 17 9 35 19 ZZW 1009,5 49 0,0
15.06.2018 17:00:00 16,8 0,0 22 12 37 20 ZZW 1009,4 49 0,0
15.06.2018 16:00:00 16,8 0,8 17 9 47 26 WZW 1009,3 43 0,0
15.06.2018 15:00:00 15,9 1,2 16 9 48 26 W 1009,0 50 0,0
15.06.2018 14:00:00 15,6 3,1 18 10 48 26 ZW 1008,3 47 0,0
15.06.2018 13:00:00 15,3 2,1 17 9 46 25 ZW 1007,8 49 0,0
15.06.2018 12:00:00 15,1 2,6 21 11 40 21 ZZW 1007,2 46 0,0
15.06.2018 11:00:00 14,8 4,2 18 10 40 22 ZZW 1006,7 44 0,0
15.06.2018 10:00:00 14,3 4,8 16 9 40 22 ZW 1006,2 50 0,0
15.06.2018 09:00:00 13,5 5,4 19 11 41 22 ZZW 1005,7 46 0,0
15.06.2018 08:00:00 13,0 5,7 16 9 41 22 ZZW 1004,9 48 0,0
15.06.2018 07:00:00 11,8 6,1 17 9 34 18 ZZW 1004,3 46 0,0
15.06.2018 06:00:00 11,3 6,8 16 9 34 18 ZZW 1003,4 50 0,0
15.06.2018 05:00:00 11,5 7,4 16 9 37 20 ZZW 1002,5 37 0,0
15.06.2018 04:00:00 11,9 7,4 14 7 39 21 ZZW 1002,0 36 0,0
15.06.2018 03:00:00 12,2 8,1 17 9 39 21 ZZW 1001,6 29 0,0
15.06.2018 02:00:00 12,3 8,9 18 10 46 25 ZZW 1001,1 29 0,0
15.06.2018 01:00:00 12,6 9,2 19 10 48 26 ZZW 1000,8 48 0,1
15.06.2018 00:00:00 12,6 10,3 23 13 48 26 Z 1000,6 12 0,0
14.06.2018 23:00:00 12,8 10,3 20 11 42 23 Z 1001,0 14 0,2
14.06.2018 22:00:00 13,0 10,4 18 10 40 22 Z 1001,1 21 1,1
14.06.2018 21:00:00 13,3 10,8 16 9 40 22 Z 1001,7 13 0,9
14.06.2018 20:00:00 13,2 10,2 15 8 40 22 Z 1001,7 18 0,2
14.06.2018 19:00:00 13,7 9,7 19 10 41 22 Z 1002,3 18 0,0
14.06.2018 18:00:00 13,2 8,9 19 11 41 22 ZZO 1003,1 42 0,0
14.06.2018 17:00:00 14,3 8,3 21 11 42 23 Z 1003,7 50 0,0
14.06.2018 16:00:00 14,1 8,5 25 13 43 23 Z 1004,1 35 0,0
14.06.2018 15:00:00 15,4 7,2 21 11 43 23 ZZW 1004,2 43 0,0
14.06.2018 14:00:00 14,4 6,7 21 11 44 24 Z 1004,8 47 0,0
14.06.2018 13:00:00 14,3 6,4 21 12 44 24 Z 1005,1 50 0,0
14.06.2018 12:00:00 13,7 6,8 23 12 44 24 Z 1005,5 47 0,0
14.06.2018 11:00:00 12,6 7,5 18 10 41 22 Z 1005,6 48 0,0
14.06.2018 10:00:00 12,8 7,7 21 11 45 25 Z 1005,4 50 0,0
14.06.2018 09:00:00 14,1 7,2 29 16 45 25 Z 1005,2 36 0,0
14.06.2018 08:00:00 13,5 9,7 14 7 25 14 Z 1005,4 46 0,0
14.06.2018 07:00:00 12,3 10,2 11 6 19 10 ZO 1005,9 22 0,0
14.06.2018 06:00:00 11,6 9,2 6 3 17 9 ZZO 1006,5 50 0,0
14.06.2018 05:00:00 11,1 8,5 4 2 11 6 ZZO 1006,9 50 0,0
14.06.2018 04:00:00 10,6 7,5 3 2 11 6 O 1007,6 50 0,0
14.06.2018 03:00:00 10,4 7,5 4 2 8 5 ZO 1008,0 50 0,0
14.06.2018 02:00:00 10,5 7,2 3 2 8 4 ZO 1008,4 50 0,0
14.06.2018 01:00:00 10,5 7,2 3 2 10 5 Z 1008,6 50 0,0
14.06.2018 00:00:00 10,8 7,1 4 2 11 6 OZO 1008,5 50 0,0
13.06.2018 23:00:00 10,8 6,9 4 2 11 6 ZO 1009,1 50 0,0
13.06.2018 22:00:00 11,0 6,9 5 3 13 7 ZO 1009,3 50 0,0
13.06.2018 21:00:00 11,5 6,2 4 2 13 7 OZO 1009,0 50 0,0
13.06.2018 20:00:00 12,1 6,6 5 3 11 6 OZO 1009,0 50 0,0
13.06.2018 19:00:00 12,1 7,0 5 3 12 7 ONO 1009,0 50 0,0
13.06.2018 18:00:00 11,9 7,0 5 3 12 7 ONO 1009,2 50 0,0
13.06.2018 17:00:00 11,3 7,0 6 4 16 9 ONO 1009,4 50 0,0
13.06.2018 16:00:00 10,7 6,8 7 4 16 9 O 1009,5 50 0,0
13.06.2018 15:00:00 10,1 6,8 10 5 16 9 ONO 1009,7 50 0,9
13.06.2018 14:00:00 8,3 5,8 5 3 18 10 NO 1010,7 16 0,9
13.06.2018 13:00:00 8,9 4,7 10 5 22 12 NNO 1010,6 50 0,0
13.06.2018 12:00:00 8,9 4,5 9 5 24 13 ONO 1010,6 50 0,0

tt = temperatuur
td = dauwpunt
ff = windsnelheid
fx = windstoten
dd = windrichting
ppp = luchtdruk
vv = zicht
rr = neerslag

Weerstations in de omgeving